Wind_Speed
37 34 32 29 27 25 23 21 19 17 16 15 14 13 12 11 10 9 8 7 6 5 4 3 3 3 3 3 3 3 2 2 1 1 2 2 3 4 5 7 8 10 11
40 37 34 32 29 27 25 23 21 19 18 17 16 15 14 13 11 10 9 8 7 6 5 4 4 4 4 3 3 3 3 3 2 2 3 3 4 5 6 7 8 10 11
41 39 37 34 32 29 27 25 23 21 20 19 18 17 16 14 13 11 10 9 8 7 6 5 5 5 5 4 4 3 3 3 4 4 4 4 5 6 7 8 9 10 12
43 41 39 36 34 31 29 27 25 23 22 20 20 18 17 16 14 13 12 10 9 8 7 6 6 6 5 5 4 4 4 4 4 4 4 5 6 7 7 8 10 11 12
45 42 40 38 36 33 31 29 27 25 23 22 21 20 19 17 16 14 13 12 11 10 9 8 7 6 6 5 5 5 5 5 5 5 5 6 7 7 8 9 10 11 13
47 45 42 40 38 35 33 31 29 27 25 24 22 22 20 19 17 16 15 14 12 11 10 9 8 7 7 6 6 6 6 6 6 6 6 7 7 8 9 10 11 12 14
49 47 45 42 40 38 35 33 31 28 27 26 24 23 22 21 19 18 16 15 14 13 12 11 10 9 8 7 7 7 7 6 7 7 7 8 8 9 10 11 12 13 14
51 50 47 45 42 40 38 35 33 31 29 28 26 25 24 22 21 19 18 17 16 14 13 12 11 10 10 9 8 8 8 8 8 8 8 9 9 10 11 12 13 14 15
53 52 50 48 45 42 40 37 35 32 31 30 28 27 26 24 22 21 20 19 18 16 15 14 13 12 11 11 10 9 9 9 9 9 10 10 11 11 12 13 14 15 16
54 54 52 50 47 44 42 39 37 35 33 31 30 29 27 26 24 23 22 21 20 18 17 16 15 14 13 13 12 11 11 11 11 11 11 12 12 13 14 15 16 17 18
54 55 54 52 50 47 44 41 39 37 35 33 32 30 29 27 26 25 24 22 21 20 19 18 17 16 15 15 14 14 13 13 13 13 13 14 14 15 16 16 17 18 19
54 55 54 53 52 49 46 43 41 39 37 35 34 32 31 29 28 27 25 24 23 22 21 20 19 18 17 17 16 16 15 15 15 15 15 16 16 17 17 18 19 20 21
55 53 54 54 52 51 48 45 43 41 39 37 36 34 33 31 30 28 27 26 25 24 23 22 21 21 20 19 19 18 18 17 17 17 17 18 19 19 20 21 22 23 24
55 53 53 54 54 52 50 48 45 43 41 39 37 36 34 33 31 30 29 28 27 26 25 24 23 23 22 21 21 21 20 20 20 19 20 20 21 22 22 23 24 25 26
50 52 52 52 54 53 52 50 47 45 43 41 40 38 36 35 33 32 30 29 28 28 27 26 26 25 24 24 23 23 22 22 22 22 22 23 23 24 25 26 26 27 28
49 48 51 51 52 53 52 51 49 47 45 43 41 39 37 36 35 33 32 31 30 29 29 28 28 27 27 26 25 25 25 25 25 25 25 26 26 27 28 28 29 30 31
46 48 52 51 51 52 53 52 51 49 47 45 43 41 39 38 36 35 34 33 32 31 30 30 30 29 29 29 28 27 27 27 27 28 28 29 29 30 30 31 32 33 34
42 46 51 50 50 52 52 52 52 50 48 46 44 42 40 39 38 36 35 34 33 32 32 31 31 31 30 30 29 29 29 29 29 30 30 31 32 32 33 34 34 35 36
40 42 47 49 49 51 52 52 52 50 49 48 46 44 42 40 39 37 37 36 35 34 33 33 32 32 31 31 31 31 31 31 32 32 33 33 34 35 35 36 36 37 38
39 40 43 48 49 49 51 52 51 51 50 49 47 46 44 41 40 39 38 37 36 35 35 34 34 33 33 33 33 33 33 33 33 34 34 35 35 36 37 38 38 39 39
36 36 40 45 47 48 49 50 49 48 48 49 48 47 44 43 42 41 39 38 36 36 36 36 36 35 35 34 34 34 34 35 35 35 35 36 37 37 38 39 39 40 41
36 34 35 38 41 43 45 46 46 46 47 47 48 47 44 43 43 42 41 40 38 37 37 37 37 37 36 35 35 35 35 35 35 36 36 37 38 39 39 40 40 41 42
36 35 34 35 35 39 41 42 45 45 44 43 44 43 42 42 41 40 40 39 38 37 37 37 37 37 37 37 36 36 36 36 36 36 38 39 40 41 41 41 42 42 42
36 33 33 34 34 34 38 40 42 43 43 42 41 40 41 40 39 39 39 39 38 38 38 38 38 38 38 37 37 37 38 38 37 37 38 39 41 41 42 42 43 43 43
33 31 29 31 32 32 32 34 37 39 41 41 41 41 41 42 42 41 40 40 40 41 41 40 39 39 38 38 38 38 38 38 39 39 39 40 41 41 42 43 44 44 45
33 30 29 29 28 30 32 33 34 35 37 40 41 44 44 45 45 44 44 43 43 43 42 41 39 39 38 38 38 38 38 38 39 40 40 40 41 42 43 44 45 46 47
Wind_Direction
227 226 226 226 227 226 224 223 222 222 224 226 226 225 225 227 230 232 234 239 245 253 265 278 289 299 310 318 319 318 320 317 320 322 325 332 337 340 343 345 347 348 349
226 225 225 225 226 225 224 223 222 221 223 226 227 227 227 228 230 233 235 241 246 251 259 269 279 288 298 305 308 309 310 303 298 300 308 315 323 328 332 336 339 341 343
225 225 225 226 226 225 225 224 222 222 224 226 228 229 229 229 231 233 235 240 245 249 254 261 269 278 285 291 296 299 300 295 291 294 302 308 314 319 323 328 333 337 339
225 225 225 225 225 225 225 223 222 222 224 226 229 230 230 230 230 231 235 239 243 248 251 256 263 270 277 283 289 294 293 289 290 294 300 305 309 313 319 324 328 332 335
224 224 224 224 224 225 225 223 222 222 224 226 229 230 230 230 230 231 234 237 241 245 248 253 260 265 271 275 280 286 287 288 290 294 299 302 305 309 314 318 323 326 329
224 224 224 224 224 224 224 223 222 223 224 226 228 230 230 230 231 232 234 236 239 242 245 249 254 259 263 267 273 279 281 283 286 290 294 297 300 305 309 313 317 321 324
223 224 224 224 223 223 223 223 222 223 225 226 228 229 230 231 232 233 234 235 237 240 243 247 251 255 258 262 268 273 276 279 282 286 291 294 298 301 305 308 312 316 319
222 223 223 223 223 223 223 222 222 223 225 226 228 229 230 231 232 233 234 235 236 238 241 245 249 252 256 260 264 267 271 275 280 284 289 292 295 298 301 304 308 312 315
222 222 223 223 223 222 222 221 221 223 225 226 227 228 230 231 232 233 234 235 236 238 240 244 247 250 254 258 261 263 267 272 277 281 284 287 290 294 297 300 304 307 311
220 222 222 221 222 222 221 221 221 223 225 226 227 228 230 232 232 233 234 235 237 238 240 243 246 250 253 256 259 262 265 269 273 277 280 283 287 290 293 296 301 304 307
216 218 220 221 221 221 221 221 221 223 225 226 227 228 230 232 232 233 234 236 237 238 240 243 246 249 252 255 257 260 263 266 270 274 277 280 283 286 290 294 298 301 304
215 216 218 219 219 220 220 221 221 222 224 225 227 228 229 231 232 233 234 235 237 239 241 243 246 249 252 254 256 259 262 264 267 270 274 277 280 284 287 291 295 298 301
214 214 215 217 217 218 219 220 220 222 223 225 226 227 229 230 231 233 234 236 237 239 242 244 246 249 251 254 256 258 261 263 265 268 272 275 279 282 285 289 293 296 299
215 213 214 215 216 216 216 217 219 221 222 224 225 226 227 229 231 232 234 236 237 239 242 244 246 248 251 254 256 258 261 263 266 268 272 276 279 282 285 288 292 295 298
215 213 212 213 214 214 215 217 218 220 220 222 224 225 227 229 231 232 234 236 237 240 242 244 246 248 250 253 255 258 261 264 267 270 273 276 279 282 285 288 291 294 297
217 214 211 209 212 213 214 216 217 218 220 222 223 224 226 229 231 232 234 236 238 240 242 244 246 248 250 253 255 258 261 265 268 271 274 277 279 282 285 287 290 292 295
217 215 211 209 210 211 213 215 216 217 219 220 222 223 226 228 230 233 235 236 238 240 243 246 248 249 251 253 256 258 262 265 269 272 274 277 280 282 285 287 290 292 294
218 215 212 209 209 212 214 215 215 216 218 220 222 224 225 228 231 233 235 237 240 242 244 246 248 250 252 255 258 260 263 266 268 271 275 277 280 283 285 287 290 292 294
218 213 212 211 209 211 214 215 216 216 218 220 221 223 225 228 230 232 235 239 241 243 245 247 250 252 254 257 260 262 265 267 270 272 276 278 281 283 285 287 289 292 294
215 212 211 213 210 212 214 214 216 218 219 220 222 224 226 229 231 233 236 239 242 245 247 249 251 254 257 259 261 264 266 269 271 274 277 279 282 283 285 287 289 292 293
214 213 213 215 212 213 214 216 216 218 220 221 223 226 227 230 232 234 236 239 243 246 249 251 254 256 257 260 262 265 267 270 273 275 278 280 282 284 286 288 289 291 292
216 212 208 211 214 214 215 216 217 219 221 223 225 228 230 232 233 236 238 241 245 248 250 253 255 257 258 261 263 265 268 270 273 276 279 282 283 284 286 288 290 291 292
218 215 210 211 216 218 218 219 220 221 223 226 227 230 233 236 238 240 242 244 245 249 251 253 255 258 260 261 263 267 270 271 274 277 280 282 283 285 286 288 289 291 292
224 222 218 216 217 219 220 220 221 222 225 228 230 233 234 236 238 241 243 245 247 249 251 253 256 259 261 263 265 268 270 273 276 278 280 282 284 285 287 288 289 290 291
227 226 224 223 224 226 224 223 224 226 229 231 234 235 238 239 241 242 244 246 249 251 252 254 257 259 262 264 266 269 271 274 277 279 281 282 283 285 286 287 288 289 291
230 231 231 231 234 233 231 228 228 230 233 234 236 238 240 241 242 244 246 248 250 252 253 255 256 258 262 265 267 269 271 274 278 280 282 283 285 286 287 287 288 289 290
Height
5860 5863 5866 5869 5871 5873 5874 5876 5877 5878 5879 5880 5881 5882 5882 5882 5883 5883 5883 5883 5883 5884 5884 5883 5883 5883 5883 5882 5882 5882 5881 5881 5881 5880 5880 5879 5879 5878 5878 5877 5876 5875 5873
5855 5858 5861 5864 5867 5869 5871 5873 5874 5875 5877 5878 5879 5880 5880 5880 5881 5881 5882 5882 5882 5882 5882 5882 5882 5882 5882 5881 5881 5881 5880 5880 5880 5879 5879 5879 5878 5878 5877 5876 5875 5874 5872
5849 5853 5856 5860 5863 5865 5867 5869 5871 5872 5874 5875 5876 5877 5878 5878 5879 5879 5880 5880 5881 5881 5881 5881 5881 5881 5881 5880 5880 5880 5879 5879 5879 5879 5878 5878 5877 5877 5876 5875 5874 5873 5872
5843 5847 5851 5855 5858 5861 5863 5865 5867 5869 5871 5872 5873 5874 5875 5876 5877 5877 5878 5878 5879 5879 5880 5880 5879 5879 5879 5879 5879 5879 5878 5878 5878 5877 5877 5877 5876 5875 5875 5874 5873 5872 5871
5837 5842 5846 5850 5853 5856 5859 5861 5864 5865 5867 5869 5870 5871 5872 5873 5874 5875 5876 5876 5877 5877 5878 5878 5878 5878 5878 5878 5877 5877 5877 5877 5877 5876 5876 5875 5875 5874 5874 5873 5872 5871 5869
5830 5835 5840 5844 5848 5851 5854 5857 5859 5862 5863 5865 5867 5868 5869 5871 5871 5872 5873 5874 5874 5875 5876 5876 5876 5876 5876 5876 5876 5876 5875 5875 5875 5875 5874 5874 5873 5873 5872 5871 5870 5869 5868
5823 5828 5833 5838 5842 5846 5849 5852 5855 5857 5859 5861 5863 5864 5866 5867 5868 5869 5870 5871 5872 5873 5873 5874 5874 5874 5874 5874 5874 5874 5874 5873 5873 5873 5873 5872 5872 5871 5870 5869 5868 5867 5866
5816 5821 5826 5831 5836 5840 5843 5847 5850 5853 5855 5857 5859 5861 5862 5864 5865 5866 5867 5868 5869 5870 5870 5871 5871 5872 5872 5872 5872 5872 5872 5872 5871 5871 5871 5870 5870 5869 5868 5867 5866 5865 5864
5808 5813 5819 5824 5829 5833 5837 5841 5845 5848 5850 5853 5855 5857 5858 5860 5861 5863 5864 5865 5866 5867 5868 5868 5869 5869 5869 5870 5870 5870 5870 5870 5869 5869 5869 5868 5868 5867 5866 5865 5864 5863 5861
5799 5805 5811 5817 5822 5827 5831 5835 5839 5842 5845 5848 5850 5852 5854 5856 5857 5859 5860 5861 5862 5863 5864 5865 5866 5866 5867 5867 5867 5867 5867 5867 5867 5867 5866 5866 5865 5865 5864 5863 5862 5860 5859
5791 5797 5803 5808 5814 5820 5824 5829 5833 5836 5839 5842 5845 5847 5849 5851 5853 5855 5856 5857 5859 5860 5861 5862 5862 5863 5863 5864 5864 5864 5864 5864 5864 5864 5864 5863 5863 5862 5861 5860 5859 5857 5856
5782 5789 5794 5800 5806 5812 5817 5822 5826 5830 5834 5837 5840 5842 5844 5846 5848 5850 5851 5853 5855 5856 5857 5858 5859 5859 5860 5860 5861 5861 5861 5861 5861 5861 5861 5860 5860 5859 5858 5857 5855 5854 5852
5773 5779 5785 5791 5797 5804 5810 5815 5820 5824 5827 5831 5834 5836 5839 5841 5843 5845 5847 5848 5850 5851 5853 5854 5855 5855 5856 5857 5857 5858 5858 5858 5858 5857 5857 5857 5856 5855 5854 5853 5852 5850 5849
5764 5770 5777 5784 5789 5795 5802 5807 5812 5817 5821 5824 5828 5830 5833 5836 5838 5840 5842 5843 5845 5846 5848 5849 5850 5851 5852 5852 5853 5853 5854 5854 5854 5854 5853 5853 5852 5851 5850 5849 5848 5846 5844
5756 5762 5770 5776 5782 5787 5794 5799 5805 5810 5814 5818 5821 5824 5827 5830 5832 5834 5836 5838 5840 5841 5843 5844 5845 5846 5847 5848 5848 5849 5849 5849 5849 5849 5849 5848 5848 5847 5846 5844 5843 5841 5839
5748 5754 5762 5767 5773 5780 5786 5792 5797 5802 5806 5811 5814 5818 5821 5824 5826 5829 5831 5832 5834 5836 5837 5839 5840 5841 5842 5843 5843 5844 5844 5844 5844 5844 5844 5843 5842 5842 5840 5839 5837 5836 5833
5742 5748 5754 5760 5766 5772 5778 5783 5789 5794 5799 5803 5807 5811 5814 5817 5820 5823 5825 5827 5828 5830 5832 5833 5834 5835 5836 5837 5838 5838 5839 5839 5839 5839 5838 5837 5837 5836 5835 5833 5831 5829 5827
5736 5743 5748 5753 5758 5764 5770 5776 5781 5786 5791 5796 5800 5804 5807 5811 5814 5816 5819 5821 5823 5824 5826 5827 5829 5830 5830 5831 5832 5833 5833 5833 5833 5832 5832 5831 5830 5829 5828 5827 5825 5823 5821
5730 5737 5742 5747 5753 5758 5763 5768 5774 5779 5784 5788 5793 5797 5800 5803 5806 5809 5812 5814 5816 5818 5820 5821 5822 5824 5824 5825 5826 5826 5826 5826 5826 5826 5825 5824 5823 5822 5821 5819 5817 5816 5813
5724 5730 5736 5742 5747 5752 5757 5762 5767 5772 5776 5781 5785 5789 5793 5796 5799 5803 5805 5807 5809 5811 5813 5815 5816 5817 5818 5819 5819 5819 5819 5819 5819 5819 5818 5817 5816 5815 5813 5812 5810 5808 5806
5719 5725 5730 5736 5741 5746 5752 5757 5761 5766 5770 5775 5779 5782 5785 5789 5792 5795 5798 5800 5802 5805 5806 5808 5809 5810 5811 5811 5812 5812 5812 5812 5812 5811 5810 5809 5808 5807 5805 5804 5802 5800 5797
5714 5719 5725 5731 5736 5742 5747 5751 5756 5760 5764 5768 5772 5775 5778 5782 5785 5788 5790 5793 5795 5797 5799 5800 5802 5803 5803 5804 5805 5804 5805 5805 5804 5804 5803 5801 5800 5799 5797 5795 5793 5791 5789
5709 5715 5720 5725 5730 5735 5740 5745 5750 5754 5758 5761 5765 5769 5772 5775 5777 5780 5783 5785 5788 5790 5791 5793 5794 5795 5795 5796 5796 5797 5797 5797 5797 5796 5794 5793 5791 5790 5788 5787 5785 5782 5780
5704 5709 5714 5720 5725 5728 5733 5739 5743 5747 5752 5755 5759 5762 5765 5768 5770 5773 5775 5778 5780 5782 5783 5784 5786 5787 5787 5788 5788 5789 5789 5789 5788 5788 5787 5785 5783 5781 5780 5778 5776 5773 5771
5699 5704 5709 5714 5718 5722 5727 5732 5736 5741 5745 5749 5752 5754 5757 5760 5763 5765 5768 5770 5772 5773 5775 5776 5777 5778 5779 5779 5780 5780 5780 5780 5779 5779 5778 5777 5775 5773 5771 5769 5766 5764 5762
5694 5699 5703 5708 5712 5716 5721 5725 5730 5734 5737 5741 5744 5747 5749 5752 5754 5757 5759 5761 5763 5765 5766 5767 5768 5769 5770 5770 5771 5771 5771 5771 5770 5769 5768 5767 5766 5764 5761 5759 5756 5754 5751